This is the latest recevied weather packets stored in our database for station/object CE3TDM-12. If no packets are shown the sender has not sent any weather packets the latest 1 day(s).
| Time | Temp. | Humidity | Pressure | Rain* | Wind** | Luminosity | Snow |
|---|---|---|---|---|---|---|---|
| 1778093456 | 4.44° C | 33% | 773.5 hPa | - | - | - | - |
| 1778090024 | 5.56° C | 33% | 773.1 hPa | - | - | - | - |
| 1778089423 | 5.56° C | 33% | 769.9 hPa | - | - | - | - |
| 1778087921 | 6.67° C | 33% | 774.1 hPa | - | - | - | - |
| 1778087320 | 6.67° C | 33% | 773.8 hPa | - | - | - | - |
| 1778086718 | 6.67° C | 34% | 773.8 hPa | - | - | - | - |
| 1778083142 | 10.56° C | 32% | 771.8 hPa | - | - | - | - |
| 1778082841 | 10.56° C | 32% | 773.2 hPa | - | - | - | - |
| 1778082240 | 10° C | 32% | 773.5 hPa | - | - | - | - |
| 1778076298 | 10° C | 32% | 775 hPa | - | - | - | - |
| 1778072630 | 10° C | 32% | 775.9 hPa | - | - | - | - |
| 1778072329 | 9.44° C | 32% | 775.7 hPa | - | - | - | - |
| 1778071423 | 9.44° C | 32% | 775.9 hPa | - | - | - | - |
| 1778071122 | 8.89° C | 32% | 775.8 hPa | - | - | - | - |
| 1778070821 | 9.44° C | 32% | 775.7 hPa | - | - | - | - |
| 1778067396 | 11.11° C | 31% | 774.9 hPa | - | - | - | - |
| 1778066795 | 11.67° C | 31% | 774.6 hPa | - | - | - | - |
| 1778065894 | 11.11° C | 31% | 774.6 hPa | - | - | - | - |
| 1778065293 | 11.11° C | 32% | 774.8 hPa | - | - | - | - |
| 1778064692 | 11.67° C | 31% | 774.7 hPa | - | - | - | - |
| 1778063788 | 11.67° C | 31% | 774.7 hPa | - | - | - | - |
| 1778063488 | 11.67° C | 32% | 774.6 hPa | - | - | - | - |
| 1778062586 | 11.67° C | 31% | 773.9 hPa | - | - | - | - |
| 1778062283 | 11.67° C | 31% | 774.6 hPa | - | - | - | - |
| 1778061980 | 11.67° C | 31% | 774.4 hPa | - | - | - | - |
* Rain since midnight (hover to see other rain measurements)
** Current wind speed in m/s (hover to see current wind gust speed)